Location: Bailleul
(50.3375°N, 2.8513°E)
Time: 10:44:00
(UTC+00:00)

Cosmos 1943 Rocket - Pass Details

Date: 16 June 2021
Orbit: 813 x 843 km, 71.0° (Epoch: 27 July)

Event Time Altitude Azimuth Distance (km) Brightness Sun altitude
Rises 22:50:22 0° 333° (NNW) 3,350 7.0 -15.1°
Reaches altitude 10° 22:53:08 10° 345° (NNW) 2,414 6.0 -15.2°
Maximum altitude 22:57:52 28° 44° (NE) 1,486 3.8 -15.4°
Drops below altitude 10° 23:02:35 10° 103° (ESE) 2,407 4.3 -15.6°
Enters shadow 23:04:22 - 112° (ESE) 2,998 4.8 -15.6°
